Latest Weather Observations for Browse Island

IDW60801

Issued at 8:32 am WST Monday 30 March 2015 (issued every 30 minutes, with the page automatically refreshed every 10 minutes)

About weather observations | Map of weather stations | Latest weather observations for WA | Other Formats
Station Details ID: 200784 Name: BROWSE ISLAND Lat: -14.11 Lon: 123.55 Height: 3.7 m
Data from the previous 72 hours. | See also: Recent months for locations in Western Australia
Date/Time
WST
Temp
°C
App
Temp
°C
Dew
Point
Rel
Hum
%
Delta-T
°C
Wind Press
QNH
hPa
Press
MSL
hPa
Rain
since 9 am
mm
Dir
 
Spd
km/h
Gust
km/h
Spd
kts
Gust
kts
30/08:30am 30.0 - - - - ESE 15 17 8 9 1013.0 - -
30/08:00am 29.3 - - - - ESE 15 17 8 9 1013.0 1013.2 -
30/07:30am 29.0 - - - - ESE 13 - 7 - 1012.0 - -
30/07:00am 28.8 - - - - SE 15 - 8 - 1012.0 1012.8 -
30/06:30am 29.0 - - - - SE 15 - 8 - 1012.0 - -
30/06:00am 28.5 - - - - SE 13 13 7 7 1012.0 1012.1 -
30/05:30am 29.0 - - - - SE 13 - 7 - 1011.0 - -
30/05:00am 28.6 - - - - SE 11 - 6 - 1011.0 1011.5 -
30/04:30am 29.0 - - - - CALM 0 - 0 - 1011.0 - -
30/04:00am 28.5 - - - - CALM 0 - 0 - 1011.0 1010.9 -
30/03:30am 29.0 - - - - CALM 0 - 0 - 1010.0 - -
30/03:00am 28.7 - - - - ESE 6 - 3 - 1011.0 1010.9 -
30/02:30am 29.0 - - - - ESE 7 - 4 - 1011.0 - -
30/02:00am 28.6 - - - - E 7 - 4 - 1011.0 1010.9 -
30/01:30am 29.0 - - - - E 9 - 5 - 1011.0 - -
30/01:00am 28.8 - - - - NE 9 - 5 - 1011.0 1011.3 -
30/12:30am 29.0 - - - - NNE 13 - 7 - 1011.0 - -
30/12:00am 28.9 - - - - NNE 11 17 6 9 1012.0 1011.9 -
 
Date/Time
WST
Temp
°C
App
Temp
°C
Dew
Point
Rel
Hum
%
Delta-T
°C
Wind Press
QNH
hPa
Press
MSL
hPa
Rain
since 9 am
mm
Dir
 
Spd
km/h
Gust
km/h
Spd
kts
Gust
kts
29/11:30pm 29.0 - - - - NNE 13 - 7 - 1012.0 - -
29/11:00pm 29.1 - - - - NNE 13 - 7 - 1012.0 1012.3 -
29/10:30pm 29.0 - - - - NNE 15 - 8 - 1012.0 - -
29/10:00pm 28.9 - - - - NNE 15 - 8 - 1012.0 1012.5 -
29/09:30pm 29.0 - - - - NE 19 - 10 - 1012.0 - -
29/09:00pm 29.2 - - - - NE 22 - 12 - 1012.0 1012.2 -
29/08:30pm 29.0 - - - - NE 20 - 11 - 1012.0 - -
29/08:00pm 29.1 - - - - NE 22 - 12 - 1011.0 1011.8 -
29/07:30pm 29.0 - - - - ENE 26 - 14 - 1011.0 - -
29/07:00pm 29.2 - - - - ENE 26 - 14 - 1011.0 1011.5 -
29/06:30pm 29.0 - - - - ENE 22 - 12 - 1011.0 - -
29/06:00pm 29.1 - - - - ENE 22 28 12 15 1011.0 1011.0 -
29/05:30pm 29.0 - - - - ENE 20 - 11 - 1010.0 - -
29/05:00pm 29.1 - - - - ENE 19 - 10 - 1010.0 1010.5 -
29/04:30pm 29.0 - - - - ENE 20 - 11 - 1010.0 - -
29/04:00pm 29.3 - - - - ENE 20 - 11 - 1010.0 1010.6 -
29/03:30pm 29.0 - - - - ENE 19 - 10 - 1010.0 - -
29/03:00pm 29.2 - - - - ENE 17 - 9 - 1010.0 1010.8 -
29/02:30pm 29.0 - - - - NE 13 - 7 - 1011.0 - -
29/02:00pm 29.7 - - - - NNE 13 - 7 - 1011.0 1011.2 -
29/01:30pm 30.0 - - - - NNE 11 - 6 - 1011.0 - -
29/01:00pm 29.6 - - - - NNE 15 - 8 - 1011.0 1011.5 -
29/12:30pm 30.0 - - - - NNE 15 - 8 - 1011.0 - -
29/12:00pm 29.7 - - - - NNE 17 - 9 - 1012.0 1012.0 -
29/11:30am 29.0 - - - - NNE 19 - 10 - 1012.0 - -
29/11:00am 29.5 - - - - NNE 20 - 11 - 1013.0 1012.9 -
29/10:30am 30.0 - - - - NE 20 - 11 - 1013.0 - -
29/10:00am 29.5 - - - - NNE 22 - 12 - 1013.0 1013.4 -
29/09:30am 29.0 - - - - NE 22 - 12 - 1013.0 - -
29/09:00am 29.4 - - - - NE 22 - 12 - 1013.0 1013.2 -
29/08:30am 29.0 - - - - NE 26 - 14 - 1012.0 - -
29/08:00am 29.1 - - - - NE 26 - 14 - 1012.0 1012.6 -
29/07:30am 29.0 - - - - NE 28 - 15 - 1012.0 - -
29/07:00am 29.1 - - - - NE 30 - 16 - 1011.0 1011.7 -
29/06:30am 29.0 - - - - NE 32 - 17 - 1011.0 - -
29/06:00am 29.0 - - - - ENE 32 - 17 - 1011.0 1011.1 -
29/05:30am 29.0 - - - - ENE 30 - 16 - 1010.0 - -
29/05:00am 28.8 - - - - ENE 32 - 17 - 1010.0 1010.3 -
29/04:30am 29.0 - - - - NE 32 - 17 - 1010.0 - -
29/04:00am 28.7 - - - - NE 32 - 17 - 1010.0 1010.0 -
29/03:30am 29.0 - - - - ENE 28 - 15 - 1009.0 - -
29/03:00am 28.5 - - - - ENE 32 - 17 - 1009.0 1009.7 -
29/02:30am 29.0 - - - - ENE 30 - 16 - 1010.0 - -
29/02:00am 28.6 - - - - ENE 26 - 14 - 1010.0 1009.9 -
29/01:30am 29.0 - - - - ENE 28 - 15 - 1010.0 - -
29/01:00am 28.6 - - - - ENE 28 - 15 - 1010.0 1010.5 -
29/12:30am 28.0 - - - - ENE 24 - 13 - 1011.0 - -
29/12:00am 28.1 - - - - ENE 24 - 13 - 1011.0 1011.3 -
 
Date/Time
WST
Temp
°C
App
Temp
°C
Dew
Point
Rel
Hum
%
Delta-T
°C
Wind Press
QNH
hPa
Press
MSL
hPa
Rain
since 9 am
mm
Dir
 
Spd
km/h
Gust
km/h
Spd
kts
Gust
kts
28/11:30pm 28.0 - - - - ENE 28 - 15 - 1011.0 - -
28/11:00pm 28.3 - - - - NE 32 - 17 - 1011.0 1011.7 -
28/10:30pm 28.0 - - - - NE 32 - 17 - 1011.0 - -
28/10:00pm 28.5 - - - - NE 33 - 18 - 1011.0 1011.8 -
28/09:30pm 29.0 - - - - NE 30 - 16 - 1012.0 - -
28/09:00pm 28.5 - - - - NE 32 - 17 - 1011.0 1011.7 -
28/08:30pm 29.0 - - - - NE 35 - 19 - 1011.0 - -
28/08:00pm 28.5 - - - - NE 39 - 21 - 1011.0 1011.3 -
28/07:30pm 28.0 - - - - NE 37 - 20 - 1011.0 - -
28/07:00pm 28.3 - - - - NE 35 - 19 - 1010.0 1010.7 -
28/06:30pm 28.0 - - - - NNE 33 - 18 - 1010.0 - -
28/06:00pm 28.3 - - - - NNE 35 - 19 - 1010.0 1009.9 -
28/05:30pm 28.0 - - - - NNE 37 - 20 - 1009.0 - -
28/05:00pm 28.1 - - - - NNE 39 - 21 - 1009.0 1008.9 -
28/04:30pm 28.0 - - - - NNE 39 - 21 - 1008.0 - -
28/04:00pm 27.6 - - - - N 41 - 22 - 1008.0 1008.5 -
28/03:30pm 27.0 - - - - NNE 41 - 22 - 1008.0 - -
28/03:00pm 26.9 - - - - N 43 - 23 - 1008.0 1008.5 -
28/02:30pm 27.0 - - - - N 39 - 21 - 1008.0 - -
28/02:00pm 26.1 - - - - N 52 - 28 - 1008.0 1008.8 -
28/01:56pm 27.0 - - - - N 48 67 26 36 1008.0 - -
28/01:30pm 27.0 - - - - N 46 - 25 - 1009.0 - -
28/01:00pm 26.5 - - - - N 43 - 23 - 1009.0 1009.7 -
28/12:30pm 26.0 - - - - NNE 41 - 22 - 1009.0 - -
28/12:00pm 26.4 - - - - NNE 43 - 23 - 1010.0 1010.2 -
28/11:30am 26.0 - - - - NNE 33 - 18 - 1011.0 - -
28/11:00am 26.4 - - - - NNE 39 - 21 - 1011.0 1011.2 -
28/10:30am 25.0 - - - - NNE 32 - 17 - 1012.0 - -
28/10:18am 26.0 - - - - N 28 - 15 - 1012.0 - -
28/10:00am 25.1 - - - - ENE 44 - 24 - 1012.0 1012.0 -
28/09:30am 26.0 - - - - E 39 - 21 - 1011.0 - -
28/09:27am 26.0 - - - - E 37 - 20 - 1011.0 - -
28/09:00am 26.7 - - - - NE 24 - 13 - 1011.0 1011.1 -
28/08:30am 27.0 - - - - N 30 - 16 - 1010.0 - -
28/08:00am 26.1 - - - - N 37 - 20 - 1010.0 1010.3 -
28/07:30am 29.0 - - - - N 26 - 14 - 1010.0 - -
28/07:00am 28.9 - - - - N 30 - 16 - 1009.0 1009.7 -
28/06:30am 28.0 - - - - N 33 - 18 - 1009.0 - -
28/06:00am 28.5 - - - - N 32 - 17 - 1008.0 1008.8 -
28/05:30am 29.0 - - - - NNW 28 - 15 - 1008.0 - -
28/05:00am 28.2 - - - - N 30 - 16 - 1008.0 1008.2 -
28/04:30am 28.0 - - - - N 28 - 15 - 1008.0 - -
28/04:00am 27.9 - - - - N 28 - 15 - 1007.0 1007.1 -
28/03:53am 28.0 - - - - N 28 - 15 - 1007.0 - -
28/03:30am 27.0 - - - - ENE 7 - 4 - 1008.0 - -
28/03:00am 26.9 - - - - ESE 22 - 12 - 1008.0 1008.5 -
28/02:30am 27.0 - - - - SE 24 - 13 - 1008.0 - -
28/02:00am 27.5 - - - - E 20 - 11 - 1008.0 1008.3 -
28/01:30am 27.0 - - - - ESE 22 - 12 - 1009.0 - -
28/01:00am 27.6 - - - - ESE 30 - 16 - 1009.0 1008.9 -
28/12:30am 28.0 - - - - E 32 - 17 - 1009.0 - -
28/12:00am 28.1 - - - - E 35 - 19 - 1010.0 1010.1 -
 
Date/Time
WST
Temp
°C
App
Temp
°C
Dew
Point
Rel
Hum
%
Delta-T
°C
Wind Press
QNH
hPa
Press
MSL
hPa
Rain
since 9 am
mm
Dir
 
Spd
km/h
Gust
km/h
Spd
kts
Gust
kts
27/11:30pm 28.0 - - - - E 37 - 20 - 1010.0 - -
27/11:00pm 28.4 - - - - E 32 - 17 - 1010.0 1010.8 -
27/10:30pm 28.0 - - - - E 35 - 19 - 1010.0 - -
27/10:00pm 28.1 - - - - E 37 - 20 - 1011.0 1011.0 -
27/09:30pm 28.0 - - - - E 41 - 22 - 1011.0 - -
27/09:00pm 28.4 - - - - E 39 - 21 - 1011.0 1010.9 -
27/08:30pm 28.0 - - - - E 35 - 19 - 1011.0 - -
27/08:00pm 28.2 - - - - E 33 - 18 - 1010.0 1010.8 -
27/07:30pm 28.0 - - - - E 26 - 14 - 1010.0 - -
27/07:00pm 29.0 - - - - E 26 - 14 - 1010.0 1010.3 -
27/06:30pm 29.0 - - - - E 22 - 12 - 1010.0 - -
27/06:00pm 28.3 - - - - E 26 - 14 - 1010.0 1009.9 -
27/05:30pm 29.0 - - - - E 24 - 13 - 1009.0 - -
27/05:00pm 28.6 - - - - E 26 - 14 - 1009.0 1009.1 -
27/04:30pm 29.0 - - - - E 26 - 14 - 1008.0 - -
27/04:00pm 29.0 - - - - E 24 - 13 - 1008.0 1008.5 -
27/03:30pm 29.0 - - - - E 22 - 12 - 1008.0 - -
27/03:00pm 28.5 - - - - E 28 - 15 - 1008.0 1008.8 -
27/02:30pm 30.0 - - - - ESE 20 - 11 - 1009.0 - -
27/02:00pm 29.9 - - - - E 20 - 11 - 1009.0 1009.1 -
27/01:30pm 29.0 - - - - ESE 20 - 11 - 1009.0 - -
27/01:00pm 29.4 - - - - E 19 - 10 - 1009.0 1009.7 -
27/12:30pm 29.0 - - - - E 20 - 11 - 1010.0 - -
27/12:00pm 29.2 - - - - E 22 - 12 - 1010.0 1010.7 -
27/11:30am 29.0 - - - - ESE 24 - 13 - 1011.0 - -
27/11:00am 28.6 - - - - ESE 26 - 14 - 1011.0 1011.6 -
27/10:30am 27.0 - - - - SSE 11 - 6 - 1012.0 - -
27/10:00am 27.0 - - - - S 13 - 7 - 1012.0 1012.3 -
27/09:30am 26.0 - - - - S 11 - 6 - 1012.0 - -
27/09:00am 25.7 - - - - SSE 28 - 15 - 1012.0 1012.7 -
27/08:32am 27.0 - - - - S 33 52 18 28 1012.0 - -

Other Formats:

Comma delimited format used in spreadsheet applications
http://www.bom.gov.au/fwo/IDW60801/IDW60801.94103.axf

JavaScript Object Notation format (JSON) in row-major order
http://www.bom.gov.au/fwo/IDW60801/IDW60801.94103.json